This is the latest recevied weather packets stored in our database for station/object SV4JYD-14. If no packets are shown the sender has not sent any weather packets the latest 10 day(s).
| Time | Temp. | Humidity | Pressure | Rain* | Wind** | Luminosity | Snow |
|---|---|---|---|---|---|---|---|
| 1777570589 | 19.44° C | 59% | 1013 hPa | 0 mm | - | - | - |
| 1777569689 | 20° C | 60% | 1012 hPa | 0 mm | - | - | - |
| 1777568789 | 20.56° C | 58% | 1012 hPa | 0 mm | - | - | - |
| 1777567889 | 20.56° C | 52% | 1012 hPa | 0 mm | - | - | - |
| 1777566988 | 21.67° C | 49% | 1012 hPa | 0 mm | - | - | - |
| 1777566088 | 21.11° C | 57% | 1012 hPa | 0 mm | - | - | - |
| 1777565188 | 21.11° C | 57% | 1012 hPa | 0 mm | - | - | - |
| 1777564288 | 21.67° C | 54% | 1012 hPa | 0 mm | - | - | - |
| 1777563387 | 21.67° C | 56% | 1012 hPa | 0 mm | - | - | - |
| 1777562487 | 22.22° C | 49% | 1012 hPa | 0 mm | - | - | - |
| 1777561587 | 22.22° C | 45% | 1012 hPa | 0 mm | - | - | - |
| 1777560687 | 22.22° C | 42% | 1012 hPa | 0 mm | - | - | - |
| 1777559786 | 21.67° C | 47% | 1012 hPa | 0 mm | - | - | - |
| 1777558886 | 21.67° C | 45% | 1013 hPa | 0 mm | - | - | - |
| 1777557986 | 22.22° C | 44% | 1013 hPa | 0 mm | - | - | - |
| 1777557085 | 21.67° C | 46% | 1013 hPa | 0 mm | - | - | - |
| 1777556185 | 21.67° C | 46% | 1013 hPa | 0 mm | - | - | - |
| 1777555285 | 21.67° C | 42% | 1013 hPa | 0 mm | - | - | - |
| 1777554384 | 22.22° C | 43% | 1013 hPa | 0 mm | - | - | - |
| 1777553484 | 22.22° C | 43% | 1013 hPa | 0 mm | - | - | - |
| 1777552584 | 22.22° C | 43% | 1013 hPa | 0 mm | - | - | - |
| 1777551685 | 22.22° C | 43% | 1014 hPa | 0 mm | - | - | - |
| 1777550783 | 22.22° C | 43% | 1014 hPa | 0 mm | - | - | - |
| 1777549883 | 21.67° C | 46% | 1014 hPa | 0 mm | - | - | - |
| 1777548983 | 21.67° C | 46% | 1014 hPa | 0 mm | - | - | - |
* Rain latest hour (hover to see other rain measurements)
** Current wind speed in m/s (hover to see current wind gust speed)